[[{"header":{"parameterUnit":"m.s-1","parameterCategory":1,"la1":30.2991,"la2":30.254,"lo1":-89.0895,"lo2":-89.0444,"dy":0.0017,"dx":0.0017,"nx":28,"ny":28,"refTime":"2024-06-05T21:00:00:Z","depth":0,"parameterNumber":2,"parameterNumberName":"U-component_of_WINDS"},"data":[0,0,0,0,0,0,0,0,0,0,0,0,0,0,0,0,0,0,0,0,0,0,0,0,0,0,0,0,0,0,0,0,0,0,0,0,0,0,0,0,0,0,0,0,0,0,0,0,0,0,0,0,0,0,0,0,0,0,1.2207,1.2208,0,1.2267,1.2268,1.2269,1.2271,1.227,1.2269,1.2269,1.2331,1.2334,1.2336,0,0,0,0,0,0,0,0,0,0,0,0,0,1.2094,1.2096,1.2207,1.2208,1.2209,1.2267,1.2268,1.2269,1.2271,1.227,1.2269,1.2268,1.2331,1.2333,1.2336,0,0,0,0,0,0,0,0,0,0,0,0,0,1.2148,1.2097,1.2207,1.2217,1.2218,1.2267,1.2268,1.2269,1.2271,1.227,1.2269,1.2268,1.233,1.2333,1.2337,1.238,0,0,1.2347,1.2349,0,0,0,0,0,0,0,0,1.2145,1.2152,1.2214,1.2216,1.2218,1.226,1.2251,1.2307,1.2271,1.2251,1.2269,1.2267,1.2309,1.2314,1.2328,1.2383,1.2386,1.2348,1.235,1.2351,1.2352,0,0,0,0,0,0,0,1.2141,1.2149,1.2231,1.2215,1.2217,1.2218,1.2225,1.2262,1.2285,1.2253,1.2253,1.226,1.231,1.2324,1.2329,1.2387,1.2348,1.2351,1.2353,1.2354,1.2481,1.2482,0,0,0,0,0,0,1.2135,1.2146,1.2229,1.2233,1.2178,1.2221,1.2228,1.2248,1.2285,1.229,1.2261,1.226,1.2319,1.2325,1.2331,1.2385,1.2351,1.2355,1.2357,1.248,1.2482,1.2483,0,0,0,0,0,0,1.2133,1.2143,1.2227,1.219,1.22,1.2224,1.2246,1.225,1.2264,1.2291,1.2295,1.2272,1.2318,1.2326,1.2368,1.2387,1.2356,1.236,1.2479,1.248,1.2482,1.2492,0,0,0,0,0,0,1.213,1.2142,1.2159,1.219,1.2202,1.2262,1.2247,1.2252,1.227,1.227,1.2302,1.2307,1.2318,1.2363,1.2372,1.2391,1.2362,1.2477,1.2479,1.2482,1.249,1.2494,1.2498,0,0,0,0,0,1.2126,1.2159,1.2159,1.2169,1.2224,1.2263,1.227,1.2282,1.2272,1.2289,1.2306,1.2306,1.2384,1.2367,1.2377,1.2398,1.2476,1.2479,1.2481,1.2489,1.2494,1.2498,0,0,0,0,0,0,1.213,1.2164,1.2164,1.2209,1.2233,1.2263,1.2285,1.2287,1.2315,1.2313,1.2327,1.2334,1.2376,1.2391,1.2372,1.2442,1.2429,1.2433,1.2431,1.2436,1.2439,1.2435,1.2365,0,0,0,0,0,1.2136,1.2165,1.2193,1.223,1.2242,1.2262,1.2279,1.2286,1.2312,1.2322,1.2343,1.2368,1.2398,1.2418,1.2447,1.2493,1.25,1.2512,1.2516,1.2518,1.2523,1.2548,1.2554,1.2492,1.2492,1.2492,0,0,1.2149,1.2171,1.2189,1.2231,1.2251,1.2281,1.227,1.2302,1.2325,1.2327,1.2368,1.2383,1.2413,1.2456,1.2477,1.2471,1.2541,1.2522,1.2524,1.2527,1.2551,1.2557,1.2562,1.2494,1.2494,1.2493,0,0,1.2188,1.2208,1.224,1.226,1.229,1.2302,1.231,1.234,1.2351,1.2391,1.2394,1.2421,1.2472,1.2493,1.251,1.2556,1.2557,1.2566,1.2585,1.2609,1.2614,1.2618,1.2635,1.264,1.257,1.257,1.257,0,1.2201,1.2246,1.2257,1.2289,1.2308,1.2311,1.2344,1.2363,1.2401,1.2414,1.2406,1.2471,1.2491,1.2539,1.255,1.2564,1.2574,1.2562,1.2612,1.2617,1.2621,1.2637,1.2643,1.257,1.257,1.257,1.257,0,1.2259,1.2291,1.2313,1.2349,1.2371,1.2403,1.242,1.244,1.2445,1.2459,1.25,1.2524,1.2558,1.257,1.2575,1.2619,1.2614,1.2609,1.2596,1.2627,1.2642,1.2649,1.2572,1.2571,1.2571,1.2571,0,0,1.2303,1.2345,1.2353,1.2369,1.2402,1.2426,1.2459,1.2492,1.2509,1.2535,1.2562,1.2606,1.2601,1.2621,1.2628,1.265,1.2685,1.2642,1.2643,1.2649,1.2734,1.2738,1.2745,1.2685,1.2686,1.2687,1.2732,0,1.2346,1.2404,1.2415,1.2465,1.2494,1.2497,1.2526,1.2549,1.2562,1.2589,1.2604,1.2634,1.2626,1.2638,1.2659,1.2676,1.2702,1.2673,1.2711,1.2713,1.2704,1.2753,1.2757,1.2798,1.2738,1.2739,1.274,0,1.2403,1.243,1.2483,1.2512,1.2524,1.255,1.2581,1.2606,1.2632,1.2641,1.2662,1.2667,1.2701,1.2686,1.2733,1.2713,1.2729,1.274,1.2742,1.2746,1.2728,1.2758,1.2811,1.2817,1.2749,1.2748,1.2748,0,1.243,1.2479,1.2517,1.2531,1.2566,1.2583,1.2598,1.2624,1.2643,1.267,1.2682,1.2713,1.273,1.2753,1.2766,1.2754,1.2813,1.2798,1.282,1.282,1.2833,1.2832,1.2889,1.2843,1.2843,1.2843,1.2843,0,1.2476,1.2508,1.253,1.2553,1.259,1.2602,1.2638,1.2653,1.2675,1.2702,1.2706,1.2731,1.2747,1.2774,1.2785,1.2822,1.283,1.2837,1.284,1.2837,1.2836,1.2848,1.2846,1.2845,1.2844,1.2844,1.2844,0,1.2512,1.2527,1.2569,1.2598,1.2606,1.2632,1.2657,1.268,1.2693,1.2726,1.2735,1.2756,1.2788,1.2803,1.2843,1.285,1.2893,1.2893,1.2884,1.2885,1.2906,1.2904,1.2973,1.2983,1.293,1.2931,1.2931,0,1.2541,1.2565,1.2597,1.2615,1.2631,1.266,1.2679,1.2692,1.2712,1.2743,1.2763,1.2795,1.2821,1.2872,1.2891,1.2922,1.2923,1.2945,1.2928,1.2924,1.2923,1.2922,1.2924,1.2948,1.2949,1.2949,1.295,0,1.259,1.2596,1.2624,1.2654,1.2676,1.2701,1.2725,1.2739,1.2756,1.2778,1.2811,1.2832,1.2872,1.2904,1.2936,1.2951,1.2953,1.2955,1.2962,1.2959,1.2953,1.2956,1.2892,1.2953,1.2953,1.2953,1.2952,1.2952,1.2623,1.2645,1.2671,1.2701,1.2721,1.2743,1.2766,1.2782,1.2809,1.2843,1.2849,1.2884,1.2909,1.2952,1.2969,1.2996,1.2991,1.3001,1.3003,1.3006,1.3007,1.2948,1.3002,1.3002,1.3002,1.3002,1.3002,0,1.2672,1.2689,1.2717,1.275,1.2774,1.2774,1.28,1.282,1.2851,1.2874,1.29,1.2937,1.2968,1.2989,1.302,1.3038,1.304,1.3046,1.3045,1.3048,1.301,1.3001,1.3044,1.3044,1.3044,1.3044,1.3044,1.3044,1.2701,1.2739,1.2748,1.2795,1.2812,1.2846,1.2861,1.2881,1.29,1.2942,1.2967,1.2981,1.3003,1.3036,1.3064,1.307,1.3081,1.3087,1.3092,1.3056,1.3051,1.3047,1.3039,1.3089,1.309,1.3129,1.3129,1.313]},{"header":{"parameterUnit":"m.s-1","parameterCategory":1,"la1":30.2991,"la2":30.254,"lo1":-89.0895,"lo2":-89.0444,"dy":0.0017,"dx":0.0017,"nx":28,"ny":28,"refTime":"2024-06-05T21:00:00:Z","depth":0,"parameterNumber":3,"parameterNumberName":"V-component_of_WINDS"},"data":[0,0,0,0,0,0,0,0,0,0,0,0,0,0,0,0,0,0,0,0,0,0,0,0,0,0,0,0,0,0,0,0,0,0,0,0,0,0,0,0,0,0,0,0,0,0,0,0,0,0,0,0,0,0,0,0,0,0,5.3163,5.3163,0,5.313,5.313,5.313,5.3102,5.3102,5.3101,5.3101,5.3063,5.3062,5.3062,0,0,0,0,0,0,0,0,0,0,0,0,0,5.32,5.3199,5.3163,5.3163,5.3163,5.313,5.313,5.313,5.3102,5.3102,5.3101,5.3101,5.3063,5.3062,5.3061,0,0,0,0,0,0,0,0,0,0,0,0,0,5.3177,5.3199,5.3163,5.3145,5.3143,5.3131,5.313,5.3129,5.3102,5.3102,5.3101,5.3101,5.3064,5.3062,5.3061,5.3063,0,0,5.3058,5.3057,0,0,0,0,0,0,0,0,5.3178,5.3176,5.3148,5.3146,5.3144,5.312,5.3129,5.3107,5.3102,5.3118,5.3101,5.3101,5.3082,5.3079,5.3074,5.3061,5.306,5.3058,5.3057,5.3057,5.3056,0,0,0,0,0,0,0,5.318,5.3177,5.315,5.3148,5.3145,5.3138,5.3134,5.3125,5.3102,5.3116,5.3114,5.3111,5.3081,5.3075,5.3073,5.3059,5.3058,5.3057,5.3056,5.3056,5.3048,5.3048,0,0,0,0,0,0,5.3185,5.3178,5.3151,5.3149,5.3161,5.3137,5.3133,5.3128,5.3103,5.3098,5.3111,5.311,5.3077,5.3074,5.3071,5.3073,5.3057,5.3056,5.3055,5.3047,5.3048,5.3048,0,0,0,0,0,0,5.3186,5.3183,5.3153,5.3163,5.3159,5.3137,5.3132,5.3128,5.3122,5.3099,5.3094,5.311,5.3077,5.3073,5.3066,5.3071,5.3055,5.3054,5.3047,5.3047,5.3048,5.3075,0,0,0,0,0,0,5.3187,5.3183,5.3184,5.3164,5.3158,5.3149,5.3132,5.3127,5.3121,5.3118,5.3096,5.3092,5.3076,5.3068,5.3065,5.3069,5.3053,5.3046,5.3047,5.3048,5.3073,5.3076,5.3079,0,0,0,0,0,5.3188,5.3191,5.3184,5.3181,5.3159,5.3149,5.3146,5.3129,5.3121,5.3122,5.3107,5.3093,5.3071,5.3067,5.3064,5.3068,5.3046,5.3047,5.3048,5.3072,5.3076,5.3079,0,0,0,0,0,0,5.3211,5.3188,5.318,5.3177,5.3165,5.3144,5.3144,5.3133,5.3122,5.312,5.3098,5.3093,5.3089,5.3077,5.3074,5.3069,5.3057,5.3057,5.3076,5.3079,5.3082,5.3085,5.3052,0,0,0,0,0,5.3216,5.3211,5.3191,5.319,5.3185,5.3166,5.316,5.3149,5.3135,5.3129,5.3114,5.31,5.3091,5.3084,5.3074,5.3072,5.3067,5.3073,5.3076,5.3078,5.3078,5.3077,5.308,5.3052,5.3052,5.3052,0,0,5.3226,5.3213,5.321,5.3194,5.3184,5.3178,5.3162,5.3156,5.3151,5.3128,5.3121,5.311,5.3093,5.3089,5.3086,5.3079,5.3085,5.3079,5.3081,5.308,5.3079,5.3082,5.3084,5.3052,5.3052,5.3052,0,0,5.324,5.323,5.3229,5.322,5.3205,5.3192,5.3192,5.3174,5.3166,5.3159,5.3142,5.3136,5.3119,5.3108,5.3101,5.3114,5.3101,5.3111,5.3125,5.3125,5.3127,5.3129,5.3134,5.3136,5.3112,5.3112,5.3112,0,5.3254,5.3245,5.3229,5.3225,5.3219,5.32,5.3199,5.319,5.3172,5.3168,5.3161,5.3141,5.3128,5.3122,5.3126,5.312,5.3119,5.3113,5.3128,5.313,5.3131,5.3136,5.3138,5.3113,5.3113,5.3113,5.3113,0,5.3263,5.3258,5.3258,5.3244,5.3237,5.3234,5.3218,5.3213,5.3202,5.3191,5.3185,5.3169,5.3156,5.3154,5.3142,5.3146,5.3143,5.3132,5.3119,5.3136,5.314,5.3141,5.3115,5.3115,5.3114,5.3114,0,0,5.3289,5.3268,5.3268,5.3262,5.3245,5.324,5.3237,5.3226,5.3223,5.3212,5.3208,5.3196,5.3187,5.3178,5.3166,5.3165,5.3178,5.3155,5.3154,5.316,5.3182,5.3191,5.3193,5.317,5.317,5.317,5.3184,0,5.3301,5.3296,5.3282,5.328,5.3275,5.3258,5.3255,5.3245,5.3234,5.3228,5.3216,5.3208,5.3196,5.3191,5.319,5.3177,5.3182,5.3176,5.3166,5.3166,5.317,5.3195,5.3203,5.3217,5.3186,5.3186,5.3186,0,5.3314,5.3306,5.3304,5.329,5.3287,5.3285,5.3275,5.3269,5.3257,5.3249,5.3241,5.3228,5.3224,5.3213,5.3206,5.3202,5.3197,5.319,5.3191,5.3188,5.3176,5.3194,5.322,5.3223,5.3188,5.3188,5.3188,0,5.3334,5.3323,5.3321,5.3316,5.3298,5.3297,5.329,5.3277,5.3272,5.3263,5.326,5.325,5.3244,5.3236,5.3221,5.3214,5.3216,5.3204,5.321,5.321,5.321,5.321,5.3237,5.3207,5.3207,5.3207,5.3207,0,5.3349,5.3348,5.333,5.3328,5.3327,5.3312,5.3311,5.3302,5.3292,5.3288,5.3273,5.3269,5.3249,5.3244,5.3232,5.3229,5.3226,5.3219,5.3216,5.3221,5.3222,5.3217,5.3216,5.3208,5.3208,5.3208,5.3208,0,5.3371,5.3358,5.3355,5.3339,5.3336,5.3336,5.3322,5.332,5.331,5.3306,5.3304,5.3287,5.328,5.3264,5.3252,5.3244,5.3244,5.3238,5.3249,5.3247,5.3254,5.3254,5.3278,5.3281,5.325,5.325,5.325,0,5.3381,5.338,5.3366,5.3363,5.3357,5.3352,5.3348,5.3333,5.3328,5.3316,5.3315,5.3308,5.33,5.329,5.3276,5.3267,5.3261,5.327,5.3259,5.3265,5.3262,5.3262,5.3262,5.3272,5.3273,5.3273,5.3273,0,5.34,5.3394,5.3389,5.3382,5.3377,5.3371,5.3363,5.3361,5.3345,5.3341,5.3334,5.3329,5.3318,5.3311,5.33,5.3292,5.328,5.3277,5.3278,5.3283,5.3289,5.3286,5.3255,5.3276,5.3276,5.3276,5.3276,5.3276,5.3416,5.3415,5.3406,5.3401,5.3394,5.3388,5.3386,5.3376,5.3371,5.3362,5.3354,5.3348,5.3337,5.3323,5.3315,5.3311,5.3305,5.3306,5.3306,5.3307,5.3309,5.3291,5.3309,5.3309,5.3308,5.3308,5.3308,0,5.3435,5.3428,5.3424,5.3415,5.3411,5.3402,5.3394,5.3391,5.3387,5.3379,5.3373,5.3366,5.336,5.3347,5.3339,5.3338,5.3332,5.3336,5.3336,5.3334,5.3315,5.3315,5.3341,5.3341,5.3341,5.3341,5.3341,5.3341,5.3444,5.3443,5.3437,5.3433,5.3426,5.3422,5.3418,5.3412,5.3406,5.34,5.3395,5.3387,5.3377,5.3369,5.3362,5.3358,5.3356,5.3362,5.3357,5.3338,5.3335,5.3332,5.3333,5.3362,5.3362,5.3377,5.3377,5.3377]}]]